Terug naar catalogus

OTP-2

ActiefMilitairSSO
NORAD 63235·PAYLOAD·🇺🇸 United States

Gelanceerd Mar 15, 2025 vanaf Vandenberg Space Force Base

Loading…

Volgende Passages (komende 24 uur)

TLE

VersSource: Space-Track

Epoch: Sep 14, 2026, 11:48 UTC

1 63235U 25052AB  26257.49230198  .00006618  00000-0  26763-3 0  9999
2 63235  97.3724 148.5935 0005402 190.8151 169.2971 15.25039566 83473

Volg OTP-2 in realtime met AllMySat

Download on the App Store